EUTELSAT HOTBIRD 13G

Last updated on Tue Oct 28 2025 00:02:51 GMT+0000 (Coordinated Universal Time)

1 54225U 22146A 25299.83348505 .00000099 00000+0 00000+0 0 9992 2 54225 0.0466 238.1969 0002094 290.6077 179.7137 1.00273063 5125
UTC large
Height (km)
Speed (km/s)
/
Latitude / Longitude
Inclination (degrees)
Orbital Period (minutes)
Azimuth
Elevation
Range (km)
Doppler Factor

Next 0 passes for location: London (51.5072 / 0.1276)

Sorry there are no passes over London.